This demonstration page uses our WeatherBlox Daily Observations layout. Learn more.

Left ArrowRight Arrow

Hourly Observations for September 8, 2022

Temp ( °F °C ) Dew Point ( °F °C ) Humidity (%) Winds ( mph kmh ) Pressure ( in mb ) Visibility ( mi km ) Precip ( " mm )
12:53 am 00:53 Clear 76 24.4 61 16.1 60 60 NE 16 26 29.97 1015 10 16 0.00 0.00
1:53 am 01:53 Partly Cloudy 76 24.4 62 16.7 62 62 N 6 9 29.95 1014 10 16 0.00 0.00
2:53 am 02:53 Clear 75 23.9 68 20 79 79 E 7 11 29.94 1014 10 16 0.00 0.00
3:53 am 03:53 Clear 75 23.9 59 15 57 57 ENE 13 20 29.93 1014 10 16 0.00 0.00
4:53 am 04:53 Clear 75 23.9 61 16.1 62 62 NE 13 20 29.93 1014 10 16 0.00 0.00
5:53 am 05:53 Clear 75 23.9 58 14.4 55 55 NNE 12 19 29.93 1013 10 16 0.00 0.00
6:53 am 06:53 Sunny 74 23.3 61 16.1 64 64 Calm 29.93 1014 10 16 0.00 0.00
7:53 am 07:53 Sunny 79 26.1 67 19.4 67 67 VRB 6 9 29.95 1014 10 16 0.00 0.00
8:53 am 08:53 Sunny 83 28.3 68 20 61 61 SSW 8 13 29.97 1015 10 16 0.00 0.00
9:53 am 09:53 Mostly Cloudy 83 28.3 68 20 61 61 S 12 19 29.97 1015 10 16 0.00 0.00
10:53 am 10:53 Mostly Sunny 84 28.9 70 21.1 63 63 SSW 13 20 29.97 1015 10 16 0.00 0.00
11:53 am 11:53 Mostly Sunny 86 30 65 18.3 50 50 S 17 28 29.96 1015 10 16 0.00 0.00
12:53 pm 12:53 Mostly Sunny 85 29.4 66 18.9 53 53 SSW 9 15 29.95 1014 10 16 0.00 0.00
1:53 pm 13:53 Mostly Cloudy 84 28.9 69 20.6 61 61 SSW 10 17 29.94 1014 10 16 0.00 0.00
2:53 pm 14:53 Cloudy 83 28.3 69 20.6 63 63 SSW 12 19 29.92 1013 10 16 0.00 0.00
3:53 pm 15:53 Mostly Cloudy 83 28.3 69 20.6 63 63 S 12 19 29.91 1013 10 16 0.00 0.00
4:53 pm 16:53 Mostly Cloudy 81 27.2 70 21.1 69 69 SW 10 17 29.90 1013 10 16 0.00 0.00
5:53 pm 17:53 Mostly Cloudy 80 26.7 71 21.7 74 74 SW 9 15 29.91 1013 10 16 0.00 0.00
6:53 pm 18:53 Mostly Cloudy 79 26.1 71 21.7 77 77 SW 6 9 29.91 1013 10 16 0.00 0.00
7:53 pm 19:53 Mostly Clear 79 26.1 70 21.1 74 74 Calm 29.93 1014 10 16 0.00 0.00
8:53 pm 20:53 Mostly Cloudy 79 26.1 71 21.7 77 77 WSW 7 11 29.94 1014 10 16 0.00 0.00
9:53 pm 21:53 Cloudy 80 26.7 66 18.9 62 62 NE 8 13 29.96 1015 10 16 0.00 0.00
10:53 pm 22:53 Mostly Cloudy 79 26.1 66 18.9 65 65 NE 7 11 29.95 1014 10 16 0.00 0.00
11:53 pm 23:53 Clear 79 26.1 65 18.3 62 62 N 8 13 29.93 1014 10 16 0.00 0.00

Powered by AerisWeather